FAKM

Kimberley Airport

Airport
ICAO code
FAKM
IATA Code
KIM
Summary
ICAO Region
AFI
ICAO Territory
Location

, Northern Cape

Serving
Kimberley
Elevation
3950 ft
Coordinates
28° 48' 10" S , 24° 45' 55" E
Metar
FAKM 191200Z 28002KT CAVOK 27/13 Q1024

Runways

Designator Length Width Surface Rops
10/28 2439 45 ASP No/No
2/20 3000 46 ASP No/No

Airport map

Aerial View

SKYbrary Partners:

Safety knowledge contributed by: